Location: Newark
(40.9833°N, 0.0333°W)
Time: 17:24:41
(UTC+00:00)

Vanguard 2 Rocket - Pass Details

Date: 30 October 2020
Orbit: 554 x 3326 km, 32.9° (Epoch: 24 November)

Event Time Altitude Azimuth Distance (km) Brightness Sun altitude
Rises 18:41:04 0° 246° (WSW) 2,723 10.6 -19.9°
Reaches altitude 10° 18:43:24 10° 234° (SW) 1,827 9.2 -20.4°
Maximum altitude 18:46:50 29° 173° (S) 1,118 7.3 -21.0°
Enters shadow 18:47:27 27° 157° (SSE) 1,172 7.2 -21.1°
Drops below altitude 10° 18:50:59 10° 113° (ESE) 2,226 - -21.8°
Sets 18:54:08 0° 103° (ESE) 3,461 - -22.4°
